www.pogodaiklimat.ru

Погода и климат >> Архив погоды >> Россия >> Дагестан >> Кочубей


ПОГОДА в Кочубее

  • Прогноз погоды в Кочубее
  • Монитор погоды в Кочубее

АРХИВ ПОГОДЫ в Кочубее

Время (UTC), дата Ветер
(напр.,м/с)
 
Видим.   Явления Облачность Т
(С)
Тd
(С)
f
(%)
Тe
(С)
Тes
(С)
Комфортность P
(гПа)
Po
(гПа)
Тmin
(С)
Tmax
(С)
R
(мм)
R24
(мм)
S
(см)
09 12.08 СЗ 6-11
{11}
20 км 4/4 600 м
[Cu hum]
+28.6 +6.8 25 +28 +32 жарко 1015.5 1018.0
12 12.08 СЗ 7-12
{13}
20 км 6/6 600 м
[Cu hum]
+29.9 +6.5 23 +29 +30 жарко 1014.4 1016.9
15 12.08 СЗ 6
{14}
20 км 8/8 600 м
[Cb calv]
+28.8 +6.1 24 +28 +28 жарко 1014.3 1016.8 +30.7
18 12.08 СЗ 2 4000 м 6/6 600 м
[Sc]
+25.3 +8.2 34 +26 +26 жарко 1015.3 1017.8
21 12.08 С 3 4000 м ясно +19.3 +9.7 54 +20 +20 1016.0 1018.6
00 13.08 С 1 4000 м ясно +15.3 +8.3 63 +16 +16 1016.5 1019.2
03 13.08 СЗ 2 20 км ясно +15.2 +8.9 66 +15 +16 1017.7 1020.3 +13.5
06 13.08 С 4 20 км ясно +24.3 +4.2 27 +24 +30 комфорт 1018.8 1021.4
09 13.08 СЗ 3 20 км 3/0
[Ci fib]
+27.8 +3.5 21 +26 +39 жарко 1017.9 1020.4
12 13.08 СЗ 5 20 км ясно +29.7 -0.6 14 +27 +32 жарко 1016.2 1018.8
15 13.08 СЗ 5 20 км ясно +28.9 -0.4 15 +26 +27 жарко 1015.5 1018.0 +29.9
18 13.08 З 3 4000 м ясно +23.4 +1.8 24 +23 +23 комфорт 1016.7 1019.3
21 13.08 С 2 4000 м ясно +16.8 +3.7 42 +17 +17 1016.6 1019.2
00 14.08 штиль 0 4000 м ясно +15.5 +2.9 43 +15 +15 1016.6 1019.2
03 14.08 СЗ 2 20 км ясно +14.5 +5.8 56 +14 +15 1017.4 1020.0 +12.4
06 14.08 С 3 20 км ясно +26.3 +2.0 21 +25 +33 комфорт 1017.7 1020.2
09 14.08 В 2 20 км ясно +29.1 +0.1 15 +26 +43 жарко 1016.3 1018.8
12 14.08 В 5 20 км ясно +29.5 +0.6 15 +27 +32 жарко 1015.4 1017.9
15 14.08 В 5 20 км ясно +25.6 +2.1 22 +24 +25 комфорт 1015.0 1017.6 +29.9
18 14.08 ЮВ 3 4000 м 10/0
[Ac As]
+18.9 +8.8 52 +20 +20 1015.6 1018.2
21 14.08 ЮВ 3 4000 м 8/0
[Ac trans]
+16.4 +11.0 70 +16 +16 1015.1 1017.8
00 15.08 В 1 4000 м 6/0
[Ac trans]
+12.6 +9.1 79 +13 +13 1014.1 1016.7
03 15.08 В 2 20 км ясно +15.9 +12.8 82 +16 +17 1014.2 1016.8 +11.4
06 15.08 В 7-11
{12}
20 км ясно +27.1 +8.0 30 +27 +30 жарко 1014.2 1016.7
09 15.08 В 10-13
{15}
20 км ясно +28.5 +7.7 27 +28 +29 жарко 1013.8 1016.4
12 15.08 В 9-14
{15}
20 км ясно +27.8 +8.3 29 +28 +28 жарко 1012.9 1015.4
15 15.08 В 8-12
{15}
20 км ясно +25.1 +9.8 38 +26 +26 жарко 1012.5 1015.0 +28.8
18 15.08 В 4
{12}
4000 м ясно +19.4 +12.8 66 +21 +21 комфорт 1012.7 1015.3
21 15.08 В 4 4000 м ясно +20.1 +14.5 70 +22 +22 комфорт 1011.7 1014.2
00 16.08 В 4 4000 м ясно +20.3 +15.4 73 +23 +23 комфорт 1010.8 1013.4
03 16.08 В 6 20 км ясно +21.9 +16.6 72 +26 +26 душно 1010.3 1012.8 +19.1
06 16.08 В 8-12
{14}
20 км ясно +27.0 +16.3 52 +30 +32 душно 1010.4 1012.9
09 16.08 В 9-15
{15}
20 км ясно +30.2 +12.4 34 +31 +33 жарко 1009.9 1012.3
12 16.08 В 10-14
{16}
20 км ясно +30.5 +12.2 33 +31 +32 жарко 1008.2 1010.7
15 16.08 В 9-12
{15}
20 км ясно +26.1 +16.3 55 +30 +30 душно 1007.1 1009.6 +31.0
18 16.08 В 3
{12}
4000 м ясно +22.1 +17.4 75 +27 +27 душно 1008.6 1011.2
21 16.08 В 4 4000 м 4/0
[Ci fib]
+21.4 +17.4 78 +25 +25 комфорт 1007.4 1010.0
00 17.08 В 5 4000 м 6/0
[Ci fib]
+22.2 +16.7 71 +27 +27 душно 1007.0 1009.6
03 17.08 В 6 20 км 8/4 600 м
[Sc Ac trans Ci sp]
+22.7 +17.6 73 +28 +28 душно 1007.5 1010.1 +20.2
06 17.08 ЮВ 7-10
{13}
20 км 8/6 600 м
[Sc Ci sp]
+26.6 +15.0 49 +29 +30 жарко 1007.9 1010.4
09 17.08 В 3-11
{11}
20 км 8/4 600 м
[Cb calv Ac trans Ci sp]
+31.8 +11.7 29 +32 +37 жарко 1008.5 1010.9
12 17.08 ЮВ 8-13
{14}
20 км 8/4 600 м
[Cb calv Ci sp]
+32.1 +10.5 27 +32 +33 жарко 1008.3 1010.7
15 17.08 В 6
{15}
20 км 6/0
[Ac trans]
+28.8 +14.7 42 +31 +31 жарко 1009.0 1011.5 +32.6
18 17.08 В 2
{10}
4000 м 6/3 600 м
[Sc Ci fib]
+22.4 +17.2 72 +27 +27 душно 1010.9 1013.4
21 17.08 В 6 4000 м 10/10 600 м
[Sc]
+23.2 +17.5 70 +29 +29 душно 1009.7 1012.3
00 18.08 ЮВ 6
{11}
4000 м 8/8 600 м
[Sc]
+23.3 +17.8 71 +29 +29 душно 1009.2 1011.8
03 18.08 ЮВ 2
{10}
20 км 8/8 600 м
[Sc]
+23.6 +15.0 59 +26 +27 жарко 1008.7 1011.2 +20.6
06 18.08 ЮВ 4 20 км 8/6 600 м
[Sc Ac trans]
+27.7 +15.9 49 +31 +33 душно 1008.4 1010.9
09 18.08 В 11-16
{16}
20 км 3/0
[Cc]
+33.6 +9.9 23 +33 +33 жарко 1007.8 1010.3
12 18.08 В 10-15
{19}
20 км 8/0
[Ac trans]
+32.5 +12.3 29 +33 +33 жарко 1007.9 1010.4
15 18.08 В 7-11
{16}
20 км 8/3 600 м
[Sc Ac cast Cc]
+28.0 +15.6 47 +31 +31 душно 1008.3 1010.8
18 18.08 В 3
{11}
4000 м 9/8 600 м
[Sc Ac trans]
+24.4 +16.4 61 +28 +28 душно 1010.4 1013.0
21 18.08 В 5 4000 м 10/0
[Ac As]
+23.6 +17.4 68 +27 +27 жарко 1010.3 1012.9
00 19.08 ЮВ 4 4000 м 8/0
[Ac trans]
+21.6 +18.3 82 +26 +26 душно 1011.3 1013.8
03 19.08 ЮВ 3 20 км 9/0
[Ac trans Cc]
+20.7 +18.0 85 +25 +25 комфорт 1012.6 1015.2 +20.6
06 19.08 ЮВ 4 20 км 3/0
[Ac trans Ci fib]
+29.4 +18.3 51 +34 +39 очень
душно
1013.4 1015.9

 

Местоположение метеостанции Кочубей (Дагестан, Россия): широта 44.40 долгота 46.55 высота над уровнем моря -21 м.

В архиве по умолчанию представлена погода в Кочубее за последнюю неделю. Архивные данные за месяц целиком и за предыдущие месяцы, начиная с января 2011 года, Вы можете получить, выбрав интересующий диапазон дат из раскрывающегося списка и нажав кнопку "Ввод!".


*Определитесь, кто Вы:
робот инопланетянин человек

Внимание! Время в таблицах - всемирное. Для получения местного времени необходимо прибавить поправку, которая равна 3 ч.

Смотрите также архив погоды в соседних городах и на ближайших метеорологических станциях:

Погода в Терекли-Мектебе (Дагестан, Россия) (61 км)
Погода в Артезиане (Калмыкия, Россия) (63 км)
Погода в Кизляре (Дагестан, Россия) (65 км)
Погода на Острове Тюлений (Дагестан, Россия) (74 км)
Погода в Южно-Сухокумске (Дагестан, Россия) (77 км)
Погода в Бабаюрте (Дагестан, Россия) (91 км)
Погода в Шелковской (Чечня, Россия) (98 км)
Погода в Рощино (Ставропольский край, Россия) (111 км)
Погода в Комсомольском (Калмыкия, Россия) (113 км)
Погода в Гудермесе (Чечня, Россия) (122 км)

Пояснения к столбцам:

Ветер - указаны скорость ветра в м/с - средняя за 10 мин, порывы в срок и между сроками (в фигурных скобках) и направление, откуда дует ветер: С - северный, СВ - северо-восточный, В - восточный, ЮВ - юго-восточный, Ю - южный, ЮЗ - юго-западный, З - западный, СЗ - северо-западный.
Видимость - горизонтальная дальность видимости в метрах или километрах. При видимости от 1 до 10 км при отсутствии осадков обычно наблюдается дымка, при ухудшении видимости до 1 км и менее - туман. В сухую погоду видимость может ухудшаться дымом, пылью или мглою.
Явления - указаны атмосферные явления, наблюдавшиеся в срок или в последний час перед сроком; фигурными скобками обозначены явления, наблюдавшиеся между сроками (за 1-3 часа до срока); квадратными скобками обозначены град или гололедные отложения с указанием их диаметра в мм.
Облачность - указаны через наклонную черту общая и нижняя облачность в баллах и высота нижней границы облаков в метрах; квадратными скобками обозначены формы облаков: Ci - перистые, Cs - перисто-слоистые, Cc - перисто-кучевые, Ac - высококучевые, As - высокослоистые, Sc - слоисто-кучевые, Ns - слоисто-дождевые, Cu - кучевые, Cb - кучево-дождевые. Подробнее классификацию облаков см. в Атласе облаков (PDF).
T - Температура воздуха - температура, измеренная на высоте 2 м над землей.
Td - Температура точки росы - температура, при понижении до которой содержащийся в воздухе водяной пар достигнет насыщения.
f - Относительная влажность воздуха - влажноcть воздуха, измеренная на высоте 2 м над землей.
Te - Эффективная температура - температура, которую ощущает одетый по сезону человек в тени. Характеристика душности погоды. При расчете учитывается влияние влажности воздуха и скорости ветра на теплоощущения человека.
Tes - Эффективная температура на солнце - температура, которую ощущает человек, с поправкой на солнечный нагрев. Характеристика знойности погоды. Зависит от высоты солнца над горизонтом, облачности и скорости ветра. Ночью, в пасмурную погоду, а также при ветре 12 м/с и более поправка равна нулю.
P - Атмосферное давление - приведенное к уровню моря атмосферное давление.
Po - Атмосферное давление - измеренное на уровне метеостанции атмосферное давление.
Tmin - Минимальная температура - минимум температуры воздуха на высоте 2 м над землей.
Tmax - Максимальная температура - максимум температуры воздуха на высоте 2 м над землей.
R - Количество осадков - Количество выпавших осадков за период времени, мм. При наведении курсора мыши на число - период времени, за который выпало указанное количество осадков.
R24 - Количество осадков - Количество выпавших осадков за 24 часа, мм.
S - Снежный покров - Высота снежного покрова, см. При наведении курсора мыши на число - состояние снежного покрова и степень покрытия местности в баллах.